| time (UTC) | temp F | wind direction | speed MPH | gust MPH | rain 1hr in | rain 24hr in | rain mn in | humidity % | barometer mb |
| 20260504000031 | 71 | 275 | 3.0 | 13.0 | 0.00 | 0.00 | 0.00 | 37 | 1003.8 |
| 20260503235026 | 71 | 273 | 2.0 | 4.0 | 0.00 | 0.00 | 0.00 | 36 | 1003.6 |
| 20260503234021 | 72 | 249 | 3.0 | 6.0 | 0.00 | 0.00 | 0.00 | 36 | 1003.5 |
| 20260503233016 | 72 | 262 | 3.0 | 11.0 | 0.00 | 0.00 | 0.00 | 34 | 1003.5 |
| 20260503232031 | 72 | 249 | 3.0 | 7.0 | 0.00 | 0.00 | 0.00 | 34 | 1003.5 |
| 20260503231026 | 73 | 262 | 4.0 | 9.0 | 0.00 | 0.00 | 0.00 | 33 | 1003.3 |
| 20260503230022 | 75 | 267 | 5.0 | 13.0 | 0.00 | 0.00 | 0.00 | 33 | 1003.4 |
| 20260503225017 | 76 | 260 | 4.0 | 13.0 | 0.00 | 0.00 | 0.00 | 34 | 1003.2 |
| 20260503224033 | 78 | 244 | 5.0 | 11.0 | 0.00 | 0.00 | 0.00 | 33 | 1003.3 |
| 20260503223028 | 79 | 253 | 4.0 | 13.0 | 0.00 | 0.00 | 0.00 | 33 | 1003.2 |
| 20260503222024 | 79 | 254 | 4.0 | 6.0 | 0.00 | 0.00 | 0.00 | 32 | 1003.0 |
| 20260503221018 | 80 | 238 | 7.0 | 13.0 | 0.00 | 0.00 | 0.00 | 32 | 1003.1 |
| 20260503220033 | 81 | 252 | 4.0 | 9.0 | 0.00 | 0.00 | 0.00 | 33 | 1003.3 |
| 20260503215029 | 80 | 233 | 4.0 | 11.0 | 0.00 | 0.00 | 0.00 | 34 | 1003.3 |
| 20260503214023 | 80 | 232 | 7.0 | 13.0 | 0.00 | 0.00 | 0.00 | 34 | 1003.4 |
| 20260503213019 | 80 | 239 | 6.0 | 11.0 | 0.00 | 0.00 | 0.00 | 34 | 1003.4 |
| 20260503212034 | 81 | 242 | 7.0 | 16.0 | 0.00 | 0.00 | 0.00 | 33 | 1003.4 |
| 20260503211030 | 80 | 248 | 4.0 | 7.0 | 0.00 | 0.00 | 0.00 | 37 | 1003.4 |
| 20260503210025 | 80 | 242 | 6.0 | 10.0 | 0.00 | 0.00 | 0.00 | 36 | 1003.6 |
| 20260503205019 | 81 | 220 | 5.0 | 11.0 | 0.00 | 0.00 | 0.00 | 36 | 1003.9 |
| 20260503204035 | 81 | 241 | 4.0 | 8.0 | 0.00 | 0.00 | 0.00 | 37 | 1003.9 |
| 20260503203030 | 81 | 233 | 5.0 | 10.0 | 0.00 | 0.00 | 0.00 | 37 | 1003.9 |
| 20260503202026 | 80 | 254 | 4.0 | 9.0 | 0.00 | 0.00 | 0.00 | 37 | 1003.9 |
| 20260503201021 | 80 | 256 | 7.0 | 17.0 | 0.00 | 0.00 | 0.00 | 37 | 1004.2 |
| 20260503200017 | 79 | 227 | 4.0 | 9.0 | 0.00 | 0.00 | 0.00 | 39 | 1004.1 |
| 20260503195031 | 78 | 221 | 7.0 | 15.0 | 0.00 | 0.00 | 0.00 | 39 | 1004.3 |
| 20260503194027 | 78 | 241 | 5.0 | 15.0 | 0.00 | 0.00 | 0.00 | 40 | 1004.3 |
| 20260503193023 | 77 | 211 | 5.0 | 10.0 | 0.00 | 0.00 | 0.00 | 40 | 1004.6 |
| 20260503192017 | 77 | 253 | 4.0 | 10.0 | 0.00 | 0.00 | 0.00 | 40 | 1004.7 |
| 20260503191033 | 76 | 228 | 4.0 | 10.0 | 0.00 | 0.00 | 0.00 | 40 | 1004.7 |
| 20260503190027 | 76 | 222 | 5.0 | 11.0 | 0.00 | 0.00 | 0.00 | 41 | 1004.7 |
| 20260503185024 | 75 | 219 | 5.0 | 9.0 | 0.00 | 0.00 | 0.00 | 41 | 1004.9 |
| 20260503184018 | 75 | 260 | 5.0 | 10.0 | 0.00 | 0.00 | 0.00 | 41 | 1005.1 |
| 20260503183114 | 74 | 232 | 5.0 | 10.0 | 0.00 | 0.00 | 0.00 | 41 | 1005.2 |
| 20260503182030 | 74 | 197 | 4.0 | 10.0 | 0.00 | 0.00 | 0.00 | 42 | 1005.3 |
| 20260503181025 | 73 | 258 | 6.0 | 14.0 | 0.00 | 0.00 | 0.00 | 41 | 1005.3 |
| 20260503180021 | 73 | 225 | 7.0 | 17.0 | 0.00 | 0.00 | 0.00 | 42 | 1005.4 |
| 20260503175016 | 72 | 246 | 6.0 | 14.0 | 0.00 | 0.00 | 0.00 | 42 | 1005.5 |
| 20260503174051 | 72 | 236 | 7.0 | 16.0 | 0.00 | 0.00 | 0.00 | 42 | 1005.4 |
| 20260503173026 | 72 | 254 | 6.0 | 15.0 | 0.00 | 0.00 | 0.00 | 42 | 1005.6 |
| 20260503172041 | 71 | 208 | 6.0 | 14.0 | 0.00 | 0.00 | 0.00 | 44 | 1005.8 |
| 20260503171017 | 71 | 190 | 5.0 | 14.0 | 0.00 | 0.00 | 0.00 | 42 | 1005.9 |
| 20260503131050 | 56 | 197 | 6.0 | 13.0 | 0.00 | 0.00 | 0.00 | 60 | 1007.5 |
| 20260503081030 | 49 | 184 | 1.0 | 3.0 | 0.00 | 0.00 | 0.00 | 66 | 1010.2 |
| 20260503072029 | 40 | 0.0 | 0.0 | 0.00 | 0.00 | 0.00 | 83 | 1010.5 | |
| 20260503071023 | 39 | 187 | 1.0 | 4.0 | 0.00 | 0.00 | 0.00 | 83 | 1010.5 |
| 20260503055052 | 36 | 0.0 | 0.0 | 0.00 | 0.00 | 0.00 | 79 | 1011.1 | |
| 20260503054025 | 36 | 0.0 | 0.0 | 0.00 | 0.00 | 0.00 | 78 | 1011.1 | |
| 20260503053020 | 36 | 0.0 | 0.0 | 0.00 | 0.00 | 0.00 | 78 | 1011.3 | |
| 20260503052036 | 36 | 0.0 | 0.0 | 0.00 | 0.00 | 0.00 | 78 | 1011.3 | |
| 20260503051031 | 37 | 0.0 | 0.0 | 0.00 | 0.00 | 0.00 | 77 | 1011.3 | |
| 20260503050026 | 37 | 0.0 | 0.0 | 0.00 | 0.00 | 0.00 | 77 | 1011.4 | |
| 20260503045022 | 37 | 0.0 | 0.0 | 0.00 | 0.00 | 0.00 | 76 | 1011.4 | |
| 20260503044018 | 37 | 0.0 | 0.0 | 0.00 | 0.00 | 0.00 | 76 | 1011.4 | |
| 20260503043033 | 37 | 0.0 | 0.0 | 0.00 | 0.00 | 0.00 | 76 | 1011.5 | |
| 20260503042028 | 37 | 0.0 | 0.0 | 0.00 | 0.00 | 0.00 | 75 | 1011.6 | |
| 20260503041023 | 37 | 0.0 | 0.0 | 0.00 | 0.00 | 0.00 | 74 | 1011.8 | |
| 20260503040019 | 37 | 62 | 0.0 | 1.0 | 0.00 | 0.00 | 0.00 | 74 | 1011.8 |
| 20260503035035 | 38 | 79 | 0.0 | 2.0 | 0.00 | 0.00 | 0.00 | 73 | 1011.8 |
| 20260503034030 | 38 | 0.0 | 0.0 | 0.00 | 0.00 | 0.00 | 72 | 1012.0 | |
| 20260503033025 | 38 | 0.0 | 0.0 | 0.00 | 0.00 | 0.00 | 71 | 1012.0 | |
| 20260503032021 | 39 | 0.0 | 0.0 | 0.00 | 0.00 | 0.00 | 70 | 1012.2 | |
| 20260503031037 | 40 | 0.0 | 0.0 | 0.00 | 0.00 | 0.00 | 70 | 1012.3 | |
| 20260503030034 | 40 | 0.0 | 0.0 | 0.00 | 0.00 | 0.00 | 69 | 1012.3 | |
| 20260503025028 | 41 | 0.0 | 0.0 | 0.00 | 0.00 | 0.00 | 69 | 1012.4 | |
| 20260503024024 | 41 | 0.0 | 0.0 | 0.00 | 0.00 | 0.00 | 67 | 1012.2 | |
| 20260503023019 | 42 | 0.0 | 0.0 | 0.00 | 0.00 | 0.00 | 67 | 1012.4 | |
| 20260503022057 | 43 | 0.0 | 0.0 | 0.00 | 0.00 | 0.00 | 66 | 1012.3 | |
| 20260503021029 | 44 | 0.0 | 0.0 | 0.00 | 0.00 | 0.00 | 65 | 1012.5 | |
| 20260503020206 | 45 | 100 | 1.0 | 2.0 | 0.00 | 0.00 | 0.00 | 64 | 1012.4 |
| 20260503015022 | 46 | 89 | 1.0 | 2.0 | 0.00 | 0.00 | 0.00 | 64 | 1012.4 |
| 20260503014018 | 47 | 80 | 2.0 | 4.0 | 0.00 | 0.00 | 0.00 | 63 | 1012.4 |
| 20260503013053 | 48 | 88 | 2.0 | 4.0 | 0.00 | 0.00 | 0.00 | 63 | 1012.4 |
| 20260503012049 | 49 | 85 | 3.0 | 4.0 | 0.00 | 0.00 | 0.00 | 61 | 1012.3 |
| 20260503011025 | 50 | 84 | 3.0 | 6.0 | 0.00 | 0.00 | 0.00 | 56 | 1012.3 |
| 20260503010021 | 52 | 84 | 3.0 | 4.0 | 0.00 | 0.00 | 0.00 | 53 | 1012.4 |
| 20260503005036 | 54 | 84 | 2.0 | 3.0 | 0.00 | 0.00 | 0.00 | 45 | 1012.3 |
| 20260503004031 | 55 | 202 | 2.0 | 8.0 | 0.00 | 0.00 | 0.00 | 43 | 1012.2 |
| 20260503003027 | 56 | 187 | 2.0 | 4.0 | 0.00 | 0.00 | 0.00 | 40 | 1012.5 |
| 20260503002023 | 57 | 223 | 2.0 | 6.0 | 0.00 | 0.00 | 0.00 | 40 | 1012.5 |
| 20260503001019 | 59 | 213 | 1.0 | 3.0 | 0.00 | 0.00 | 0.00 | 38 | 1012.7 |